FW8688 Weather Reports


Display with metric or nautical units.
time (UTC)temp
F
wind
direction
speed
MPH
gust
MPH
rain 1hr
in
rain 24hr
in
rain mn
in
humidity
%
barometer
mb
20260507084305 46 168 0.0 0.0 0.00 0.09 0.00 56 1017.0
20260507082805 47 168 1.0 2.0 0.00 0.09 0.00 56 1017.0
20260507082306 47 168 1.0 2.0 0.00 0.09 0.00 56 1017.0
20260507081805 47 168 0.0 0.0 0.00 0.09 0.00 56 1017.0
20260507081305 47 168 0.0 0.0 0.00 0.09 0.00 55 1017.0
20260507080805 47 168 0.0 0.0 0.00 0.09 0.00 54 1017.0
20260507080305 47 168 0.0 0.0 0.00 0.09 0.00 54 1017.0
20260507075805 48 168 0.0 0.0 0.00 0.09 0.00 53 1017.0
20260507074805 48 168 0.0 2.0 0.00 0.09 0.00 53 1017.3
20260507074305 48 168 1.0 2.0 0.00 0.09 0.00 53 1017.4
20260507073804 48 168 0.0 2.0 0.00 0.09 0.00 52 1017.4
20260507073305 48 168 0.0 0.0 0.00 0.09 0.00 52 1017.4
20260507072804 49 168 0.0 0.0 0.00 0.09 0.00 51 1017.5
20260507071805 49 168 0.0 0.0 0.00 0.09 0.00 50 1017.5
20260507071304 49 168 0.0 0.0 0.00 0.09 0.00 50 1017.5
20260507070805 49 168 0.0 0.0 0.00 0.09 0.00 49 1017.5
20260507070304 49 168 0.0 0.0 0.00 0.09 0.00 49 1017.6
20260507065805 49 168 0.0 1.0 0.00 0.09 0.00 49 1017.6
20260507064305 49 168 2.0 3.0 0.00 0.09 0.00 49 1017.3
20260507063804 49 162 2.0 3.0 0.00 0.09 0.00 48 1017.3
20260507063304 49 125 1.0 2.0 0.00 0.09 0.00 47 1017.3
20260507062804 50 125 0.0 2.0 0.00 0.09 0.00 47 1017.3
20260507062306 50 125 0.0 2.0 0.00 0.09 0.00 47 1017.3
20260507061805 50 125 1.0 2.0 0.00 0.09 0.00 46 1017.3
20260507060805 51 94 1.0 5.0 0.00 0.09 0.00 45 1017.3
20260507060304 51 109 1.0 3.0 0.00 0.09 0.00 44 1017.3
20260507055804 51 110 2.0 5.0 0.00 0.09 0.09 44 1017.2
20260507055306 51 108 1.0 5.0 0.00 0.09 0.09 44 1017.2
20260507054804 52 94 1.0 3.0 0.00 0.09 0.09 44 1017.3
20260507054305 52 92 1.0 2.0 0.00 0.09 0.09 44 1017.3
20260507053805 52 92 2.0 5.0 0.00 0.09 0.09 43 1017.1
20260507053305 52 186 0.0 0.0 0.00 0.09 0.09 42 1017.1
20260507052805 52 186 0.0 0.0 0.00 0.09 0.09 42 1017.1
20260507051804 52 186 1.0 3.0 0.00 0.09 0.09 41 1017.2
20260507050304 53 121 1.0 3.0 0.00 0.09 0.09 42 1017.2
20260507045805 53 113 2.0 3.0 0.00 0.09 0.09 41 1017.1
20260507045306 53 130 2.0 3.0 0.00 0.09 0.09 41 1017.1
20260507044805 53 172 0.0 2.0 0.00 0.09 0.09 41 1017.0
20260507044305 53 172 1.0 2.0 0.00 0.09 0.09 40 1017.0
20260507043804 53 192 2.0 3.0 0.00 0.09 0.09 40 1017.0
20260507042804 54 93 5.0 6.0 0.00 0.09 0.09 39 1016.8
20260507042306 54 75 5.0 8.0 0.00 0.09 0.09 39 1016.7
20260507041804 54 72 7.0 8.0 0.00 0.09 0.09 38 1016.7
20260507041304 54 70 6.0 8.0 0.00 0.09 0.09 37 1016.8
20260507040804 55 65 4.0 7.0 0.00 0.09 0.09 36 1016.8
20260507035804 55 76 1.0 3.0 0.00 0.09 0.09 36 1016.8
20260507035306 55 160 2.0 3.0 0.00 0.09 0.09 35 1016.8
20260507034806 55 140 2.0 3.0 0.00 0.09 0.09 35 1016.8
20260507034304 56 148 3.0 3.0 0.00 0.09 0.09 34 1016.8
20260507033804 56 300 0.0 1.0 0.00 0.09 0.09 33 1016.6
20260507033305 57 300 2.0 3.0 0.00 0.09 0.09 33 1016.4
20260507032804 57 301 2.0 3.0 0.00 0.09 0.09 32 1016.2
20260507032306 57 313 3.0 3.0 0.00 0.09 0.09 31 1016.2
20260507031804 58 316 2.0 3.0 0.00 0.09 0.09 30 1016.2
20260507031304 58 304 1.0 2.0 0.00 0.09 0.09 31 1016.2
20260507030805 59 304 2.0 3.0 0.00 0.09 0.09 30 1016.2
20260507025306 60 311 2.0 3.0 0.00 0.09 0.09 28 1016.2
20260507024804 60 291 0.0 1.0 0.00 0.09 0.09 29 1016.1
20260507024304 60 291 1.0 3.0 0.00 0.09 0.09 28 1016.1
20260507023805 60 292 2.0 3.0 0.00 0.09 0.09 27 1016.2
20260507023305 61 305 2.0 3.0 0.00 0.09 0.09 27 1016.1
20260507022804 61 297 2.0 3.0 0.00 0.09 0.09 27 1016.0
20260507021805 62 315 2.0 3.0 0.00 0.09 0.09 26 1016.0
20260507021305 62 326 3.0 8.0 0.00 0.09 0.09 25 1015.9
20260507020805 62 341 3.0 7.0 0.00 0.09 0.09 25 1015.9
20260507020304 62 350 5.0 6.0 0.00 0.09 0.09 24 1016.0
20260507015805 62 353 4.0 7.0 0.00 0.09 0.09 24 1016.0
20260507014805 63 16 3.0 7.0 0.00 0.09 0.09 24 1016.1
20260507014304 63 330 3.0 7.0 0.00 0.09 0.09 24 1016.1
20260507013804 63 313 4.0 8.0 0.00 0.09 0.09 24 1016.1
20260507013304 62 10 5.0 9.0 0.00 0.09 0.09 24 1016.0
20260507012804 62 20 5.0 10.0 0.00 0.09 0.09 24 1016.2
20260507012306 63 18 6.0 16.0 0.00 0.09 0.09 24 1016.2
20260507011804 63 37 6.0 12.0 0.00 0.09 0.09 23 1016.2
20260507011305 63 0 5.0 12.0 0.00 0.09 0.09 23 1016.2
20260507010304 63 351 4.0 12.0 0.00 0.09 0.09 23 1016.1
20260507005804 63 2 6.0 13.0 0.00 0.09 0.09 23 1016.1
20260507005306 63 358 7.0 15.0 0.00 0.09 0.09 23 1016.1
20260507004805 63 7 5.0 9.0 0.00 0.09 0.09 24 1016.0
20260507004304 63 21 8.0 16.0 0.00 0.09 0.09 23 1016.0
20260507003804 63 17 7.0 12.0 0.00 0.09 0.09 23 1016.0
20260507003304 63 22 9.0 15.0 0.00 0.09 0.09 23 1016.2
20260507002804 63 1 7.0 12.0 0.00 0.09 0.09 23 1016.2
20260507002306 63 0 6.0 10.0 0.00 0.09 0.09 24 1016.2
20260507001804 63 338 7.0 12.0 0.00 0.09 0.09 23 1016.2
20260507001304 63 4 9.0 12.0 0.00 0.09 0.09 23 1016.1
20260507000804 63 357 8.0 12.0 0.00 0.09 0.09 25 1016.2
20260507000306 63 4 9.0 14.0 0.00 0.09 0.09 24 1016.2
20260506235804 63 337 8.0 13.0 0.00 0.09 0.09 23 1016.2
20260506235306 63 355 6.0 12.0 0.00 0.09 0.09 24 1015.8
20260506234804 63 334 9.0 13.0 0.00 0.09 0.09 24 1015.8
20260506234305 63 315 7.0 14.0 0.00 0.09 0.09 25 1015.8
20260506233804 63 355 10.0 15.0 0.00 0.09 0.09 25 1015.8
20260506233304 63 352 9.0 16.0 0.00 0.09 0.09 25 1015.8
20260506232805 63 324 7.0 13.0 0.00 0.09 0.09 25 1015.8
20260506232306 62 5 10.0 20.0 0.00 0.09 0.09 25 1015.8
20260506231804 62 324 9.0 15.0 0.00 0.09 0.09 25 1015.8
20260506231304 62 354 10.0 18.0 0.00 0.09 0.09 26 1015.8
20260506225804 62 323 9.0 20.0 0.00 0.09 0.09 26 1015.7
20260506224804 62 341 10.0 17.0 0.00 0.09 0.09 25 1015.7
20260506223805 62 335 10.0 21.0 0.00 0.09 0.09 26 1015.8
20260506223304 62 338 12.0 23.0 0.00 0.09 0.09 25 1015.9
20260506222804 62 334 12.0 23.0 0.00 0.09 0.09 25 1015.9
20260506222306 62 3 10.0 15.0 0.00 0.09 0.09 26 1015.9
20260506221804 62 330 9.0 20.0 0.00 0.09 0.09 26 1016.1
20260506221304 62 326 12.0 18.0 0.00 0.09 0.09 26 1016.1
20260506220804 62 328 12.0 20.0 0.00 0.09 0.09 26 1016.1
20260506220305 62 353 7.0 20.0 0.00 0.09 0.09 26 1016.0
20260506214804 61 354 10.0 17.0 0.00 0.09 0.09 26 1016.2
20260506214304 61 4 12.0 18.0 0.00 0.09 0.09 26 1016.1
20260506213804 61 354 12.0 21.0 0.00 0.09 0.09 26 1016.1
20260506213304 61 14 10.0 20.0 0.00 0.09 0.09 26 1016.1
20260506212804 61 13 13.0 21.0 0.00 0.09 0.09 26 1016.3
20260506212306 61 299 10.0 20.0 0.00 0.09 0.09 26 1016.3
20260506211805 61 316 12.0 20.0 0.00 0.09 0.09 26 1016.2
20260506211304 61 322 13.0 20.0 0.00 0.09 0.09 26 1016.0
20260506210805 61 342 11.0 21.0 0.00 0.09 0.09 26 1016.0
20260506210305 60 321 10.0 18.0 0.00 0.09 0.09 26 1016.0
20260506205804 60 0 12.0 18.0 0.00 0.09 0.09 27 1015.9
20260506205306 60 346 13.0 23.0 0.00 0.09 0.09 27 1015.9
20260506204804 60 335 10.0 24.0 0.00 0.09 0.09 26 1015.9
20260506204304 60 332 12.0 25.0 0.00 0.09 0.09 26 1015.9
20260506203804 60 358 17.0 23.0 0.00 0.09 0.09 24 1016.0
20260506203304 60 351 11.0 21.0 0.00 0.09 0.09 24 1016.0
20260506202804 60 336 14.0 23.0 0.00 0.09 0.09 25 1015.9
20260506201804 60 349 14.0 24.0 0.00 0.09 0.09 25 1016.0
20260506201304 59 333 13.0 21.0 0.00 0.09 0.09 26 1016.0
20260506200804 59 323 13.0 20.0 0.00 0.09 0.09 25 1016.0
20260506195804 59 2 12.0 21.0 0.00 0.09 0.09 26 1016.0
20260506195306 59 14 13.0 22.0 0.00 0.09 0.09 24 1016.0
20260506194804 59 12 16.0 25.0 0.00 0.09 0.09 25 1016.1
20260506194305 59 352 14.0 21.0 0.00 0.09 0.09 24 1016.2
20260506193804 59 345 14.0 21.0 0.00 0.09 0.09 25 1016.3
20260506192306 58 350 13.0 21.0 0.00 0.09 0.09 24 1016.4
20260506191804 57 358 11.0 20.0 0.00 0.09 0.09 23 1016.4
20260506191304 57 343 12.0 22.0 0.00 0.09 0.09 25 1016.2
20260506190804 57 14 12.0 20.0 0.00 0.09 0.09 24 1016.2
20260506190304 57 1 10.0 17.0 0.00 0.09 0.09 25 1016.2
20260506185804 57 30 10.0 18.0 0.00 0.09 0.09 25 1016.2
20260506185306 56 357 13.0 20.0 0.00 0.09 0.09 25 1016.2
20260506184805 56 29 14.0 21.0 0.00 0.09 0.09 24 1016.4
20260506184304 56 1 11.0 17.0 0.00 0.09 0.09 24 1016.4
20260506183304 56 328 12.0 21.0 0.00 0.09 0.09 26 1016.3
20260506182804 56 343 8.0 15.0 0.00 0.09 0.09 28 1016.3
20260506182306 55 356 12.0 21.0 0.00 0.09 0.09 27 1016.5
20260506181805 55 354 12.0 20.0 0.00 0.09 0.09 26 1016.3
20260506181304 55 342 12.0 20.0 0.00 0.09 0.09 26 1016.3
20260506180804 55 329 12.0 23.0 0.00 0.09 0.09 26 1016.2
20260506175804 55 27 10.0 18.0 0.00 0.09 0.09 26 1016.0
20260506175306 55 13 14.0 22.0 0.00 0.09 0.09 26 1016.0
20260506174804 55 354 12.0 20.0 0.00 0.09 0.09 26 1015.8
20260506174304 55 353 10.0 21.0 0.00 0.09 0.09 28 1015.8
20260506173804 55 334 9.0 16.0 0.00 0.09 0.09 28 1015.8
20260506173304 54 19 9.0 18.0 0.00 0.09 0.09 27 1015.8
20260506172804 54 350 12.0 22.0 0.00 0.09 0.09 24 1015.8
20260506172306 54 9 12.0 17.0 0.00 0.09 0.09 24 1015.2
20260506171804 54 338 12.0 21.0 0.00 0.09 0.09 29 1015.2
20260506171304 54 341 11.0 21.0 0.00 0.09 0.09 28 1015.2
20260506170804 54 2 10.0 21.0 0.00 0.09 0.09 28 1015.2
20260506170305 54 358 13.0 20.0 0.00 0.09 0.09 28 1015.2
20260506165804 54 3 13.0 20.0 0.00 0.09 0.09 28 1015.2
20260506165305 53 351 12.0 20.0 0.00 0.09 0.09 28 1015.2
20260506164804 53 10 9.0 17.0 0.00 0.09 0.09 33 1015.2
20260506164305 53 28 10.0 22.0 0.00 0.09 0.09 30 1015.2
20260506163804 53 344 10.0 17.0 0.00 0.09 0.09 33 1015.1
20260506163304 53 355 13.0 20.0 0.00 0.09 0.09 33 1015.1
20260506162804 53 357 10.0 16.0 0.00 0.09 0.09 35 1015.1
20260506162306 52 13 11.0 17.0 0.00 0.09 0.09 35 1014.9
20260506161804 52 4 11.0 20.0 0.01 0.09 0.09 34 1014.9
20260506161305 52 1 13.0 20.0 0.01 0.09 0.09 36 1014.9
20260506160804 52 3 12.0 18.0 0.01 0.09 0.09 36 1014.7
20260506160304 52 15 13.0 21.0 0.01 0.09 0.09 37 1014.7
20260506155804 52 18 10.0 17.0 0.01 0.09 0.09 38 1014.7
20260506155306 52 346 12.0 20.0 0.01 0.09 0.09 39 1014.7
20260506154804 52 0 10.0 20.0 0.01 0.09 0.09 45 1014.7
20260506154304 52 4 12.0 20.0 0.01 0.09 0.09 47 1014.7
20260506153804 52 31 9.0 15.0 0.01 0.09 0.09 46 1014.6
20260506153305 52 1 9.0 15.0 0.01 0.09 0.09 47 1014.6
20260506152804 51 3 9.0 14.0 0.01 0.09 0.09 46 1014.2
20260506152306 51 11 10.0 18.0 0.01 0.09 0.09 46 1014.2
20260506151804 51 357 9.0 15.0 0.00 0.08 0.08 47 1014.2
20260506151305 51 355 9.0 14.0 0.00 0.08 0.08 48 1014.2
20260506150804 51 356 12.0 18.0 0.00 0.08 0.08 50 1014.3
20260506150305 50 7 8.0 13.0 0.00 0.08 0.08 52 1014.1
20260506145306 49 3 5.0 6.0 0.00 0.08 0.08 57 1014.1
20260506144804 49 0 6.0 9.0 0.00 0.08 0.08 57 1014.1
20260506144304 49 340 5.0 9.0 0.00 0.08 0.08 58 1014.1
20260506143804 49 356 7.0 10.0 0.00 0.08 0.08 59 1014.0
20260506143304 48 320 5.0 9.0 0.00 0.08 0.08 59 1014.2
20260506142804 48 323 5.0 7.0 0.00 0.08 0.08 59 1014.1
20260506142306 48 338 5.0 9.0 0.00 0.08 0.08 58 1014.1
20260506141804 48 311 6.0 12.0 0.00 0.09 0.08 58 1014.0
20260506141304 48 338 5.0 10.0 0.00 0.09 0.08 60 1013.9
20260506140803 47 345 3.0 7.0 0.00 0.09 0.08 62 1013.9
20260506140304 47 314 3.0 8.0 0.00 0.09 0.08 63 1013.8
20260506135804 47 336 4.0 10.0 0.00 0.09 0.08 64 1013.7
20260506134804 46 300 6.0 7.0 0.00 0.09 0.08 66 1013.6
20260506134304 46 292 2.0 6.0 0.00 0.09 0.08 68 1013.6
20260506132804 46 244 3.0 5.0 0.00 0.09 0.08 68 1013.2
20260506132307 45 269 1.0 3.0 0.00 0.09 0.08 69 1013.2
20260506131804 45 269 0.0 3.0 0.00 0.09 0.08 70 1013.2
20260506131304 45 278 0.0 3.0 0.00 0.09 0.08 71 1013.2
20260506130804 45 289 1.0 3.0 0.00 0.09 0.08 72 1013.1
20260506130304 44 290 0.0 0.0 0.00 0.09 0.08 73 1013.1
20260506125804 44 254 0.0 0.0 0.00 0.09 0.08 74 1013.0
20260506125306 44 254 1.0 2.0 0.00 0.09 0.08 73 1012.8
20260506124804 44 269 0.0 0.0 0.00 0.09 0.08 73 1012.7
20260506124304 44 269 0.0 0.0 0.00 0.09 0.08 73 1012.5
20260506123304 44 203 1.0 3.0 0.00 0.09 0.08 73 1012.5
20260506122804 44 203 1.0 3.0 0.00 0.09 0.08 72 1012.5
20260506122306 44 305 2.0 3.0 0.00 0.09 0.08 72 1012.6
20260506121306 44 229 0.0 0.0 0.00 0.09 0.08 71 1012.3
20260506120804 45 229 0.0 3.0 0.00 0.09 0.08 71 1012.3
20260506120304 45 267 0.0 1.0 0.00 0.09 0.08 71 1012.3
20260506114304 44 11 3.0 7.0 0.00 0.09 0.08 71 1012.4
20260506113804 44 357 6.0 10.0 0.00 0.09 0.08 71 1012.2
20260506113304 45 347 5.0 9.0 0.00 0.09 0.08 72 1012.2
20260506112804 45 358 6.0 12.0 0.00 0.09 0.08 72 1012.2
20260506112306 45 1 6.0 12.0 0.00 0.09 0.08 76 1011.4
20260506111804 45 354 8.0 15.0 0.00 0.09 0.08 74 1011.4
20260506111304 44 356 7.0 12.0 0.00 0.09 0.08 75 1011.4
20260506110304 44 353 6.0 16.0 0.00 0.09 0.08 77 1011.4
20260506105305 44 357 7.0 12.0 0.00 0.09 0.08 79 1011.4
20260506104804 44 347 7.0 14.0 0.00 0.09 0.08 80 1011.4
20260506103804 44 342 3.0 10.0 0.00 0.09 0.08 82 1011.2
20260506103304 44 48 3.0 9.0 0.00 0.09 0.08 82 1011.1
20260506102804 44 333 7.0 12.0 0.00 0.09 0.08 83 1011.1
20260506102305 45 325 5.0 12.0 0.03 0.09 0.08 83 1010.7
20260506101804 45 299 3.0 6.0 0.04 0.09 0.08 83 1010.7
20260506100804 45 354 5.0 9.0 0.05 0.09 0.08 83 1010.7
20260506100304 46 343 5.0 8.0 0.06 0.09 0.08 83 1010.7
20260506095804 46 349 3.0 7.0 0.07 0.09 0.08 83 1010.5
20260506095305 46 325 5.0 13.0 0.08 0.09 0.08 83 1010.1
20260506094804 47 314 8.0 13.0 0.08 0.09 0.08 82 1010.1
20260506094304 47 346 7.0 12.0 0.08 0.09 0.08 82 1010.1
20260506092803 48 330 3.0 7.0 0.08 0.09 0.08 80 1010.1
20260506092306 49 35 6.0 10.0 0.05 0.06 0.05 80 1010.4
20260506091804 49 24 7.0 13.0 0.04 0.05 0.04 79 1010.1
20260506091304 49 16 8.0 13.0 0.03 0.04 0.03 78 1010.1
20260506090803 50 319 10.0 15.0 0.03 0.04 0.03 75 1010.1
20260506090304 50 316 8.0 15.0 0.02 0.03 0.02 74 1009.1
20260506085803 51 308 7.0 14.0 0.01 0.02 0.01 73 1009.1